Flag for Australia Weather past 2 weeks in The Settlement, Christmas Island, Australia

Now
72 °F

Passing clouds.


Feels Like: 67 °F
Forecast: 73 / 81 °F
Wind: No wind

Location: Christmas Island Aerodrome

Current Time: May 25, 2015 at 10:39:07 PM

Latest Report: May 25, 2015 at 10:00 PM


Visibility: N/A

Pressure: 30.01 "Hg

Humidity: 94%

Dew point: 70 °F

Location of The SettlementLocation

Historic Weather in The Settlement — Graph

°F

The Settlement temperature yesterday

Maximum temperature yesterday: 81 °F (at 9:00 AM)
Minimum temperature yesterday: 73 °F (at 7:00 PM)
Average temperature yesterday: 77 °F

Past Weeks' High & Low Weather Summary

 TemperatureHumidityPressure
High82 °F (May 12, 1:00 PM)94% (May 11, 10:00 AM)30.01 "Hg (May 11, 10:00 AM)
Low72 °F (May 25, 1:00 AM)66% (May 17, 12:00 PM)29.86 "Hg (May 13, 3:00 PM)
Average79 °F82%29.95 "Hg
* Reported May 10 9:00 PM — May 25 9:00 PM, The Settlement, Weather by CustomWeather, © 2015

Note: Actual official high and low records may vary slightly from our data, if they occured in-between our weather recording intervals... More about our weather records

Advertising

The Settlement weather history for previous 24 hours

 ConditionsComfort  
Time TempWeatherWind HumidityBarometerVisibility
9:00 PM
Mon, May 25
72 °FClear.2 mph94%30.01 "HgN/A
8:00 PM73 °FClear.No wind89%29.98 "HgN/A
7:00 PM73 °FClear.No wind89%29.98 "HgN/A
6:00 PM75 °FClear.No wind83%29.95 "HgN/A
5:00 PM77 °FSunny.6 mph79%29.92 "HgN/A
4:00 PM79 °FScattered clouds.7 mph74%29.92 "HgN/A
3:00 PM79 °FScattered clouds.8 mph74%29.92 "HgN/A
2:00 PM81 °FScattered clouds.9 mph70%29.92 "HgN/A
1:00 PM82 °FScattered clouds.8 mph70%29.92 "HgN/A
12:00 PM81 °FScattered clouds.8 mph70%29.95 "HgN/A
11:00 AM81 °FScattered clouds.9 mph70%29.98 "HgN/A
10:00 AM79 °FScattered clouds.8 mph79%29.98 "HgN/A
9:00 AM81 °FScattered clouds.7 mph74%29.98 "HgN/A
8:00 AM77 °FPartly sunny.8 mph83%29.98 "HgN/A
7:00 AM77 °FPartly sunny.7 mph83%29.98 "HgN/A
6:00 AM75 °FPassing clouds.6 mph83%29.95 "HgN/A
5:00 AM75 °FPassing clouds.7 mph89%29.92 "HgN/A
4:00 AM75 °FPassing clouds.7 mph89%29.92 "HgN/A
3:00 AM75 °FPartly cloudy.6 mph89%29.92 "HgN/A
2:00 AM73 °FPassing clouds.5 mph94%29.92 "HgN/A
1:00 AM72 °FPassing clouds.2 mph94%29.95 "HgN/A
12:00 AM73 °FPassing clouds.3 mph89%29.95 "HgN/A
11:00 PM
Sun, May 24
75 °FPassing clouds.6 mph83%29.98 "HgN/A
10:00 PM75 °FPassing clouds.6 mph89%29.98 "HgN/A
Weather by CustomWeather, © 2015

See weather overviewHow to use our weather pages